User: anonymous   Login
Location: Unspecified
(0.0000°N, 0.0000°E)
Time: 03:08:21
(UTC+02:00)
Language:

Meteor PRIRODA - Orbit

View from above orbital plane
View from above orbital plane
View from above satellite
View from above satellite

Ground track
Ground track

The orbit data is extracted from the following two-line orbital elements,

1 12585U 81065A   16239.05230842  .00001045  00000-0  52113-4 0  9992
2 12585  97.3951 217.4233 0014925 358.8730   1.2468 15.19648539917430
Epoch (UTC): 26 August 2016 01:15:19
Eccentricity: 0.0014925
inclination: 97.3951°
perigee height: 496 km
apogee height: 517 km
right ascension of ascending node: 217.4233°
argument of perigee: 358.8730°
revolutions per day: 15.19648539
mean anomaly at epoch: 1.2468°
orbit number at epoch: 91743

The dashed part of the orbit path shows where the satellite is in the earth's shadow,  

DLR